Weather History for PAYA - February, 2013

Change the Weather History Date:

Tuesday, February 19, 2013

  Actual Average Record
Temperature  
Mean Temperature 34 °F 30 °F  
Max Temperature 35 °F 37 °F 54 °F (2010)
Min Temperature 33 °F 23 °F -16 °F (1949)
Degree Days  
Heating Degree Days 31 35  
Month to date heating degree days 576 676  
Since 1 July heating degree days 5975 5815  
Cooling Degree Days 0    
Month to date cooling degree days 0  
Year to date cooling degree days 0  
Moisture  
Dew Point 33 °F    
Average Humidity 0    
Maximum Humidity 0    
Minimum Humidity 0    
Precipitation  
Precipitation 0.22 in 0.38 in 3.28 in (1988)
Month to date precipitation 10.95 7.34  
Year to date precipitation 22.72 21.00  
Snow  
Snow 0.60 in 0.90 in 6.80 in (1976)
Month to date snowfall 24.8 19.1  
Since 1 July snowfall 95.2 94.1  
Snow Depth 6.00 in    
Sea Level Pressure  
Sea Level Pressure 29.64 in    
Wind  
Wind Speed 4 mph (East)    
Max Wind Speed 12 mph    
Max Gust Speed 20 mph    
Visibility 6 miles    
Events Fog , Rain , Snow    
T = Trace of Precipitation, MM = Missing Value Source: NWS Daily Summary

Daily Weather History Graph

Daily Weather History Graph

Search for Another Location

Airport or City:

Trip Planner

Search our weather history database for the weather conditions in past years. The results will help you decide how hot, cold, wet, or windy it might be!

Date:

Astronomy

Feb. 19, 2013 Rise Set
Actual Time 7:42 AM AKST 5:23 PM AKST
Civil Twilight 7:00 AM AKST 6:05 PM AKST
Nautical Twilight 6:12 AM AKST 6:53 PM AKST
Astronomical Twilight 5:25 AM AKST 7:40 PM AKST
Moon 11:10 AM AKST (2/19) 4:11 AM AKST (2/19)
Length of Visible Light 11h 05m
Length of Day
9h 40m
Waxing Gibbous, 69% of the Moon is Illuminated
Feb 19
Waxing Gibbous
Feb 25
Full
Mar 4
Last Quarter
Mar 11
New
Mar 19
First Quarter

Hourly Weather History & Observations

Time (AKST) Temp. Windchill Dew Point Humidity Pressure Visibility Wind Dir Wind Speed Gust Speed Precip Events Conditions
12:20 AM 33.8 °F 29.6 °F 32.0 °F 93% 29.75 in 10.0 mi East 4.6 mph - 0.00 in   Overcast
12:53 AM 33.1 °F 28.7 °F 33.1 °F 100% 29.75 in 10.0 mi East 4.6 mph - 0.00 in Rain Light Rain
1:53 AM 33.1 °F 30.0 °F 33.1 °F 100% 29.77 in 3.0 mi East 3.5 mph - 0.00 in   Overcast
2:00 AM 33.8 °F 30.8 °F 33.8 °F 100% 29.76 in 3.0 mi East 3.5 mph - N/A   Overcast
3:02 AM 33.8 °F 29.6 °F 33.8 °F 100% 29.75 in 5.0 mi East 4.6 mph - 0.00 in Rain Light Rain
3:41 AM 33.8 °F 30.8 °F 33.8 °F 100% 29.75 in 4.0 mi East 3.5 mph - 0.00 in   Overcast
3:53 AM 33.1 °F - 33.1 °F 100% 29.76 in 5.0 mi Calm Calm - 0.00 in   Overcast
4:00 AM 33.8 °F 30.8 °F 33.8 °F 100% 29.76 in 9.0 mi ENE 3.5 mph - N/A   Overcast
4:12 AM 33.8 °F 29.6 °F 33.8 °F 100% 29.76 in 10.0 mi East 4.6 mph - N/A   Overcast
4:53 AM 33.1 °F - 33.1 °F 100% 29.77 in 10.0 mi Calm Calm - N/A   Overcast
5:53 AM 33.1 °F 30.0 °F 32.0 °F 96% 29.76 in 10.0 mi East 3.5 mph - 0.00 in   Overcast
6:00 AM 33.8 °F 29.6 °F 32.0 °F 93% 29.76 in 10.0 mi East 4.6 mph - N/A   Overcast
6:10 AM 33.8 °F 30.8 °F 32.0 °F 93% 29.76 in 10.0 mi ENE 3.5 mph - N/A   Overcast
6:31 AM 33.8 °F - 32.0 °F 93% 29.76 in 10.0 mi Calm Calm - N/A   Overcast
6:53 AM 33.1 °F 30.0 °F 32.0 °F 96% 29.75 in 10.0 mi ENE 3.5 mph - N/A   Overcast
7:53 AM 33.1 °F 30.0 °F 32.0 °F 96% 29.75 in 8.0 mi East 3.5 mph - 0.01 in Rain Light Rain
8:29 AM 33.8 °F 30.8 °F 33.8 °F 100% 29.75 in 7.0 mi East 3.5 mph - 0.02 in Rain , Snow Light Rain
8:53 AM 33.1 °F - 32.0 °F 96% 29.75 in 10.0 mi Calm Calm - 0.02 in Rain Light Rain
9:20 AM 33.8 °F 30.8 °F 33.8 °F 100% 29.75 in 10.0 mi ENE 3.5 mph - 0.00 in Rain Light Rain
9:41 AM 33.8 °F - 32.0 °F 93% 29.74 in 6.0 mi Calm Calm - 0.00 in Rain , Snow Light Rain
9:53 AM 33.1 °F - 32.0 °F 96% 29.75 in 2.5 mi Calm Calm - 0.00 in Rain , Snow Light Rain
10:00 AM 33.8 °F - 33.8 °F 100% 29.74 in 2.5 mi Calm Calm - 0.00 in Rain , Snow Light Rain
10:10 AM 33.8 °F - 32.0 °F 93% 29.74 in 4.0 mi Calm Calm - 0.01 in Snow Light Snow
10:53 AM 34.0 °F 31.0 °F 33.1 °F 96% 29.74 in 8.0 mi ENE 3.5 mph - 0.02 in Snow Light Snow
11:01 AM 33.8 °F - 32.0 °F 93% 29.74 in 9.0 mi Calm Calm - 0.00 in Snow Light Snow
11:09 AM 33.8 °F - 33.8 °F 100% 29.74 in 9.0 mi Calm Calm - 0.00 in Snow Light Snow
11:15 AM 33.8 °F 30.8 °F 32.0 °F 93% 29.74 in 1.8 mi East 3.5 mph - 0.00 in Snow Light Snow
11:19 AM 33.8 °F 30.8 °F 32.0 °F 93% 29.74 in 0.8 mi East 3.5 mph - 0.00 in   Overcast
11:26 AM 33.8 °F 30.8 °F 33.8 °F 100% 29.74 in 0.5 mi ESE 3.5 mph - 0.00 in Fog Fog
11:40 AM 33.8 °F - 33.8 °F 100% 29.74 in 0.2 mi Calm Calm - 0.00 in Fog Fog
11:53 AM 33.1 °F 27.7 °F 33.1 °F 100% 29.73 in 0.2 mi East 5.8 mph - 0.00 in Fog Fog
12:15 PM 33.8 °F 30.8 °F 33.8 °F 100% 29.73 in 0.5 mi ESE 3.5 mph - N/A Fog Fog
12:22 PM 33.8 °F - 33.8 °F 100% 29.73 in 1.8 mi Calm Calm - N/A   Overcast
12:24 PM 33.8 °F - 33.8 °F 100% 29.73 in 3.0 mi Calm Calm - N/A   Overcast
12:53 PM 35.1 °F - 34.0 °F 96% 29.73 in 10.0 mi Calm Calm - N/A   Overcast
1:20 PM 35.6 °F - 33.8 °F 93% 29.72 in 10.0 mi Calm Calm - N/A   Overcast
1:53 PM 35.1 °F 32.2 °F 34.0 °F 96% 29.72 in 5.0 mi East 3.5 mph - N/A   Overcast
3:29 PM 33.8 °F - 33.8 °F 100% 29.68 in 1.5 mi Calm Calm - 0.00 in Rain Light Rain
3:34 PM 33.8 °F 30.8 °F 33.8 °F 100% 29.68 in 0.8 mi SE 3.5 mph - 0.00 in   Overcast
3:50 PM 35.6 °F - 33.8 °F 93% 29.68 in 1.5 mi Calm Calm - 0.00 in Rain , Snow Light Rain
3:53 PM 34.0 °F 31.0 °F 34.0 °F 100% 29.68 in 2.5 mi SE 3.5 mph - 0.01 in Rain , Snow Light Rain
4:00 PM 33.8 °F 30.8 °F 33.8 °F 100% 29.67 in 2.5 mi SE 3.5 mph - 0.00 in Rain , Snow Light Rain
4:37 PM 33.8 °F 29.6 °F 33.8 °F 100% 29.65 in 9.0 mi East 4.6 mph - 0.01 in   Overcast
4:53 PM 33.1 °F 30.0 °F 32.0 °F 96% 29.64 in 5.0 mi East 3.5 mph - 0.01 in Snow Light Snow
5:11 PM 33.8 °F 29.6 °F 32.0 °F 93% 29.63 in 10.0 mi East 4.6 mph - 0.00 in   Overcast
5:42 PM 33.8 °F 30.8 °F 32.0 °F 93% 29.61 in 10.0 mi East 3.5 mph - 0.00 in   Overcast
5:53 PM 33.1 °F 28.7 °F 32.0 °F 96% 29.60 in 7.0 mi East 4.6 mph - 0.00 in Snow Light Snow
6:14 PM 33.8 °F 27.7 °F 33.8 °F 100% 29.58 in 9.0 mi East 6.9 mph - 0.00 in Rain Light Rain
6:51 PM 33.8 °F 28.6 °F 32.0 °F 93% 29.57 in 8.0 mi East 5.8 mph - 0.01 in Snow Light Snow
6:53 PM 33.1 °F 27.7 °F 32.0 °F 96% 29.57 in 9.0 mi East 5.8 mph - 0.01 in   Overcast
7:03 PM 33.8 °F 27.7 °F 33.8 °F 100% 29.57 in 8.0 mi East 6.9 mph - 0.00 in Snow Light Snow
7:36 PM 33.8 °F 27.0 °F 32.0 °F 93% 29.56 in 10.0 mi East 8.1 mph - 0.00 in   Overcast
7:48 PM 33.8 °F 27.7 °F 32.0 °F 93% 29.56 in 4.0 mi East 6.9 mph - 0.00 in Snow Light Snow
7:53 PM 33.1 °F 26.1 °F 32.0 °F 96% 29.56 in 5.0 mi ESE 8.1 mph - 0.00 in Snow Light Snow
8:05 PM 33.8 °F 27.0 °F 32.0 °F 93% 29.55 in 2.0 mi East 8.1 mph - 0.00 in Snow Light Snow
8:09 PM 33.8 °F 27.7 °F 32.0 °F 93% 29.55 in 1.2 mi East 6.9 mph - 0.01 in Snow Light Snow
8:13 PM 33.8 °F 27.0 °F 32.0 °F 93% 29.54 in 1.8 mi ESE 8.1 mph - 0.02 in Snow Light Snow
8:16 PM 33.8 °F 27.0 °F 32.0 °F 93% 29.54 in 2.0 mi ESE 8.1 mph - 0.02 in Snow Light Snow
8:21 PM 33.8 °F 27.7 °F 32.0 °F 93% 29.54 in 1.8 mi ESE 6.9 mph 16.1 mph 0.02 in Snow Light Snow
8:23 PM 33.8 °F 27.7 °F 32.0 °F 93% 29.54 in 2.0 mi ESE 6.9 mph 16.1 mph 0.02 in Snow Light Snow
8:25 PM 33.8 °F 27.0 °F 32.0 °F 93% 29.54 in 2.0 mi East 8.1 mph 16.1 mph 0.02 in Snow Light Snow
8:32 PM 33.8 °F 27.0 °F 32.0 °F 93% 29.53 in 9.0 mi East 8.1 mph - 0.02 in   Overcast
8:53 PM 34.0 °F 26.6 °F 32.0 °F 92% 29.52 in 10.0 mi East 9.2 mph - 0.02 in   Overcast
9:00 PM 33.8 °F 25.8 °F 32.0 °F 93% 29.52 in 5.0 mi East 10.4 mph - N/A   Overcast
9:05 PM 33.8 °F 25.8 °F 32.0 °F 93% 29.52 in 1.8 mi East 10.4 mph - 0.00 in Snow Light Snow
9:12 PM 33.8 °F 26.4 °F 32.0 °F 93% 29.51 in 3.0 mi East 9.2 mph - 0.01 in Snow Light Snow
9:23 PM 33.8 °F 26.4 °F 32.0 °F 93% 29.51 in 10.0 mi East 9.2 mph - 0.01 in   Overcast
9:53 PM 34.0 °F 27.2 °F 32.0 °F 92% 29.49 in 10.0 mi East 8.1 mph - 0.01 in   Overcast
10:27 PM 33.8 °F 25.8 °F 32.0 °F 93% 29.48 in 3.0 mi East 10.4 mph - 0.00 in Snow Light Snow
10:36 PM 33.8 °F 27.0 °F 32.0 °F 93% 29.47 in 2.0 mi East 8.1 mph 19.6 mph 0.01 in Snow Light Snow
10:50 PM 33.8 °F 26.4 °F 30.2 °F 87% 29.46 in 5.0 mi East 9.2 mph - 0.02 in Snow Light Snow
10:53 PM 34.0 °F 26.6 °F 30.9 °F 89% 29.47 in 4.0 mi East 9.2 mph - 0.02 in Snow Light Snow
10:59 PM 33.8 °F 28.6 °F 32.0 °F 93% 29.46 in 2.5 mi East 5.8 mph - 0.01 in Snow Light Snow
11:07 PM 33.8 °F 27.7 °F 32.0 °F 93% 29.46 in 1.2 mi East 6.9 mph 16.1 mph 0.02 in Snow Light Snow
11:18 PM 33.8 °F 28.6 °F 32.0 °F 93% 29.46 in 1.0 mi ESE 5.8 mph - 0.04 in Snow Light Snow
11:31 PM 33.8 °F 27.7 °F 32.0 °F 93% 29.45 in 1.2 mi ESE 6.9 mph - 0.06 in Snow Light Snow
11:53 PM 33.1 °F 26.1 °F 32.0 °F 96% 29.45 in 1.8 mi East 8.1 mph - 0.09 in Snow Light Snow
11:57 PM 33.8 °F 25.3 °F 32.0 °F 93% 29.44 in 2.5 mi East 11.5 mph - 0.00 in Snow Light Snow